Weather History for Coventry, United Kingdom

Change the Weather History Date:

Saturday, March 23, 2013

  Actual Average Record
Temperature  
Mean Temperature 32 °F -  
Max Temperature 33 °F 53 °F 62 °F (2003)
Min Temperature 32 °F 39 °F 26 °F (2006)
Degree Days  
Heating Degree Days 32    
Moisture  
Dew Point 33 °F    
Average Humidity 97    
Maximum Humidity 100    
Minimum Humidity 93    
Precipitation  
Precipitation 0.00 in - - ()
Sea Level Pressure  
Sea Level Pressure 29.87 in    
Wind  
Wind Speed 13 mph ()    
Max Wind Speed 17 mph    
Max Gust Speed -    
Visibility 2.2 miles    
Events Snow    
Averages and records for this station are not official NWS values.
T = Trace of Precipitation, MM = Missing Value Source: Averaged Metar Reports

Daily Weather History Graph

Daily Weather History Graph

Search for Another Location

Airport:

Trip Planner

Search our weather history database for the weather conditions in past years. The results will help you decide how hot, cold, wet, or windy it might be!

Date:

Astronomy

Mar. 23, 2013 Rise Set
Actual Time 6:01 AM GMT 6:24 PM GMT
Civil Twilight 5:27 AM GMT 6:58 PM GMT
Nautical Twilight 4:46 AM GMT 7:39 PM GMT
Astronomical Twilight 4:04 AM GMT 8:22 PM GMT
Moon 2:11 PM GMT (3/23) 3:56 AM GMT (3/23)
Length of Visible Light 13h 31m
Length of Day
12h 23m
Waxing Gibbous, 83% of the Moon is Illuminated
Mar 23
Waxing Gibbous
Mar 27
Full
Apr 3
Last Quarter
Apr 10
New
Apr 18
First Quarter

Hourly Weather History & Observations

Time (GMT) Temp. Windchill Dew Point Humidity Pressure Visibility Wind Dir Wind Speed Gust Speed Precip Events Conditions
12:20 AM 33.8 °F 23.9 °F 33.8 °F 100% 29.80 in 1.2 mi East 15.0 mph - N/A Snow Light Snow
12:50 AM 33.8 °F 23.2 °F 33.8 °F 100% 29.80 in 0.9 mi East 17.3 mph - N/A Snow Light Snow
1:20 AM 33.8 °F 23.5 °F 33.8 °F 100% 29.80 in 0.9 mi East 16.1 mph - N/A Snow Light Snow
8:20 AM 33.8 °F 23.9 °F 33.8 °F 100% 29.86 in 1.2 mi ENE 15.0 mph - N/A Snow Light Snow
8:50 AM 33.8 °F 24.3 °F 33.8 °F 100% 29.86 in 1.2 mi ENE 13.8 mph - N/A   Overcast
9:20 AM 33.8 °F 23.9 °F 33.8 °F 100% 29.86 in 1.2 mi East 15.0 mph - N/A   Overcast
9:50 AM 33.8 °F 24.3 °F 33.8 °F 100% 29.86 in 1.2 mi ENE 13.8 mph - N/A   Overcast
10:20 AM 33.8 °F 24.3 °F 33.8 °F 100% 29.86 in 1.9 mi ENE 13.8 mph - N/A   Mostly Cloudy
10:50 AM 33.8 °F 23.5 °F 33.8 °F 100% 29.86 in 3.1 mi ENE 16.1 mph - N/A   Mostly Cloudy
11:20 AM 33.8 °F 23.9 °F 33.8 °F 100% 29.89 in 3.1 mi East 15.0 mph - N/A   Mostly Cloudy
11:50 AM 33.8 °F 23.2 °F 32.0 °F 93% 29.89 in 3.1 mi ENE 17.3 mph - N/A   Mostly Cloudy
12:20 PM 33.8 °F 23.9 °F 32.0 °F 93% 29.86 in 3.1 mi East 15.0 mph - N/A   Mostly Cloudy
12:50 PM 33.8 °F 23.9 °F 32.0 °F 93% 29.89 in 3.7 mi ENE 15.0 mph - N/A   Mostly Cloudy
1:20 PM 33.8 °F 23.9 °F 32.0 °F 93% 29.89 in 3.7 mi East 15.0 mph - N/A   Mostly Cloudy
1:50 PM 33.8 °F 23.9 °F 32.0 °F 93% 29.89 in 3.7 mi East 15.0 mph - N/A   Mostly Cloudy
2:20 PM 33.8 °F 24.8 °F 32.0 °F 93% 29.89 in 4.3 mi East 12.7 mph - N/A   Mostly Cloudy
2:50 PM 33.8 °F 23.9 °F 32.0 °F 93% 29.89 in 3.7 mi East 15.0 mph - N/A Snow Light Snow
3:20 PM 33.8 °F 24.3 °F 32.0 °F 93% 29.89 in 2.2 mi East 13.8 mph - N/A Snow Light Snow
3:50 PM 33.8 °F 24.8 °F 32.0 °F 93% 29.89 in - ENE 12.7 mph - N/A Snow Light Snow
4:20 PM 33.8 °F 24.3 °F 32.0 °F 93% 29.89 in 1.9 mi ENE 13.8 mph - N/A Snow Light Snow
4:50 PM 33.8 °F 23.9 °F 32.0 °F 93% 29.89 in 1.9 mi ENE 15.0 mph - N/A Snow Light Snow
5:20 PM 32.0 °F 22.1 °F 32.0 °F 100% 29.89 in 1.9 mi ENE 13.8 mph - N/A Snow Blowing Snow
5:50 PM 32.0 °F 22.5 °F 32.0 °F 100% 29.92 in 1.6 mi ENE 12.7 mph - N/A Snow Blowing Snow
6:20 PM 32.0 °F 22.5 °F 32.0 °F 100% 29.92 in 1.2 mi ENE 12.7 mph - N/A Snow Light Snow
6:50 PM 32.0 °F 22.5 °F 32.0 °F 100% 29.92 in 1.2 mi ENE 12.7 mph - N/A Snow Light Snow